SCP
0 0 0 0 0 0 0 0 0 0 0 0 0 0 0 0 0 0 0 0 0 0 0 0 0 0 0 0 0 0 0 0
-0 0 0 0 0 0 0 0 0 0 0 0 0 0 0 0 0 0 0 0 0 0 0 0 0 0 0 0 0 0 0 0
-0 0 0 0 0 0 0 0 0 0 0 0 0 0 1 -0 0 0 0 0 1 1 0 0 0 0 0 0 0 0 0 0
0 -0 -0 0 0 0 0 0 0 0 0 0 0 0 0 0 0 0 0 0 0 0 0 0 0 0 0 0 0 0 0 0
0 0 0 -0 0 0 0 0 0 0 0 0 -0 0 0 0 0 0 0 0 0 0 0 0 0 0 0 0 0 0 0 0
-0 -0 -0 -0 -0 0 0 0 0 0 0 0 0 -0 -0 0 0 0 0 0 0 0 0 0 0 0 0 0 0 0 0 0
-0 -0 -0 0 0 0 0 0 0 0 0 0 0 0 -0 -0 0 0 0 0 0 0 0 0 0 0 0 0 0 0 0 0
-0 -0 0 0 0 0 0 0 -0 0 0 0 0 0 0 0 0 0 0 0 0 0 0 0 0 0 0 0 0 0 0 0
0 0 0 0 0 0 0 0 0 -0 -0 0 0 0 0 0 0 0 0 0 0 0 0 0 0 0 0 -0 0 0 -0 0
0 0 0 -0 0 0 0 0 0 0 -0 -0 -0 0 0 0 0 -0 -0 -0 -0 0 0 -0 -0 0 0 0 0 -0 0 -0
0 0 0 -0 -0 -0 -0 -0 -0 -0 -0 -0 -0 -0 -0 -0 -0 -0 -0 -0 -0 -0 -0 0 0 0 0 0 0 0 0 0
0 0 0 0 0 0 -0 -0 -0 -0 0 -0 -0 -0 -0 -0 -0 -0 0 -0 -0 -0 -0 -0 0 0 0 0 0 0 0 0
0 0 0 0 0 0 -0 -0 -0 -0 -0 -0 -0 -0 -0 -0 -0 -0 -0 -0 0 -0 -0 0 0 0 0 0 0 0 0 0
0 0 0 0 0 0 0 0 0 0 0 -0 -0 -0 -0 -0 -0 -0 -0 -0 -0 -0 -0 -0 -0 -0 0 0 0 0 0 0
0 0 0 0 0 0 0 0 0 0 0 -0 -0 -0 -0 -0 -0 -0 -0 -0 -0 -0 -0 -0 -0 -0 -0 0 0 0 0 0
0 0 0 0 0 0 0 0 0 0 -0 -0 -0 -0 -0 -0 -0 -0 -0 -0 -0 -0 -0 -0 -0 -0 0 0 0 0 0 0
0 0 0 0 0 0 0 0 0 -0 -0 -0 -0 -0 -0 -0 -0 -0 -0 -0 -0 -0 -0 -0 -0 0 0 0 0 0 0 0
0 0 0 0 0 0 0 0 0 0 -0 0 0 0 0 -0 0 -0 -0 -0 -0 -0 -0 0 0 0 0 0 0 -0 0 0
0 0 0 0 0 0 0 0 0 0 0 0 0 0 0 0 0 0 0 0 0 0 0 0 0 0 0 0 0 0 0 0
Wind_Speed_500mb
59 61 62 54 45 39 38 34 26 36 41 56 67 70 75 73 73 70 66 72 72 73 73 70 68 66 64 62 62 59 62 61
56 57 57 60 53 45 40 40 37 26 34 35 51 65 74 79 79 78 73 67 70 68 74 76 75 76 73 67 66 67 65 63
57 62 62 60 59 52 45 44 43 41 33 33 38 56 66 73 78 84 83 75 70 69 68 72 76 77 81 76 72 74 76 72
44 51 61 61 63 59 53 45 43 44 42 39 32 41 57 38 49 60 78 87 83 79 75 72 74 72 77 81 79 78 83 83
33 32 41 53 60 60 56 53 47 42 41 41 43 33 27 37 33 42 57 62 79 84 89 88 79 76 76 77 75 79 84 94
38 35 35 37 42 54 59 58 58 52 46 41 38 33 30 29 30 41 28 23 49 68 79 81 82 87 91 89 81 80 86 91
39 43 48 50 50 47 56 60 61 60 56 51 46 43 39 37 31 25 27 16 35 7 37 47 55 54 89 76 84 87 98 96
24 32 42 47 53 57 61 66 63 61 62 58 53 50 48 43 41 40 34 31 44 43 28 13 13 13 18 36 45 66 65 73
14 20 28 35 41 49 56 63 65 59 59 59 54 49 49 48 45 43 43 39 30 37 42 42 26 43 49 60 56 45 40 22
16 16 20 25 30 39 49 55 58 55 54 54 58 55 51 45 43 42 44 42 43 31 34 29 44 40 36 41 60 56 73 92
10 13 14 19 25 29 40 44 51 45 47 51 52 55 53 48 44 43 40 38 34 41 42 38 39 34 26 31 36 45 47 61
9 9 9 16 25 28 31 39 54 45 45 46 52 56 51 48 49 49 47 43 41 36 34 32 26 26 28 26 24 32 31 36
3 3 5 12 19 22 29 40 49 51 42 43 50 52 49 50 51 51 50 47 42 39 39 38 36 35 33 34 34 27 24 25
7 6 8 13 19 22 30 39 44 44 41 46 48 47 47 48 51 52 53 53 52 49 45 45 43 37 34 36 37 40 41 33
13 7 8 19 28 29 31 36 43 43 45 45 45 46 46 47 50 55 56 55 56 57 55 47 42 43 44 35 38 39 43 41
6 7 16 24 26 28 35 41 41 41 44 44 44 42 42 45 51 55 56 58 61 60 57 50 45 42 45 53 45 42 40 42
5 11 15 18 19 27 34 35 38 43 45 47 48 48 50 52 56 58 57 59 64 65 61 54 48 42 41 43 50 47 41 39
8 9 12 12 17 24 29 31 35 39 44 46 47 48 49 52 53 54 58 64 67 66 63 61 56 49 42 41 44 49 48 42
10 8 8 8 14 21 26 29 36 42 45 42 43 46 48 52 52 55 58 60 61 62 62 61 57 55 50 47 45 44 48 50
Wind_Direction_500mb
18 12 11 13 14 11 7 2 331 314 294 257 252 254 256 254 252 251 251 245 243 244 246 248 248 247 246 246 247 247 248 248
26 16 8 6 9 10 11 3 3 336 313 284 266 255 256 258 256 257 254 251 246 246 247 250 248 247 248 249 251 253 253 252
25 24 19 15 11 10 9 8 4 3 349 333 281 269 261 264 265 262 260 255 252 249 249 251 251 250 248 249 251 255 258 255
12 21 27 24 22 18 14 15 10 7 0 348 322 264 259 254 258 267 269 261 258 254 253 253 256 254 255 254 254 255 260 263
10 17 26 28 28 27 25 22 19 18 11 9 355 341 292 270 264 260 255 256 255 254 254 254 256 259 258 260 261 261 260 261
32 33 33 26 20 22 24 27 27 27 31 33 29 4 342 314 287 272 249 224 236 244 246 249 252 258 259 257 262 264 263 263
46 54 49 41 33 27 21 17 23 25 28 32 41 39 18 359 332 325 304 303 345 239 234 244 242 255 251 254 255 264 266 266
27 34 38 38 37 37 32 25 16 16 20 24 28 36 37 34 25 14 352 332 302 18 2 295 269 307 274 252 267 256 260 261
350 15 30 32 32 30 26 26 19 14 9 14 19 24 33 37 33 29 21 11 13 5 8 6 329 287 294 282 283 286 289 295
333 328 3 21 24 26 22 19 17 10 10 12 14 18 20 28 36 31 26 19 12 2 2 1 3 351 350 314 299 271 266 274
321 342 340 15 12 10 16 19 12 6 6 9 11 13 16 17 21 29 26 23 17 13 14 356 344 348 338 344 346 316 290 271
311 306 338 356 5 6 9 9 3 2 360 2 3 4 8 12 15 17 20 18 12 10 12 13 9 9 8 8 349 333 320 296
247 321 325 344 3 6 5 358 357 359 357 355 355 357 4 9 11 14 13 12 12 12 4 355 352 348 349 351 350 342 337 335
139 77 40 8 1 357 354 349 353 352 348 345 350 360 5 8 8 9 10 8 8 9 4 356 354 348 339 331 326 331 342 348
133 99 5 350 349 345 346 345 346 347 349 353 358 3 4 3 1 1 1 1 0 0 359 356 347 341 337 334 325 321 315 316
169 325 335 337 339 343 344 346 348 351 349 352 357 357 356 356 355 356 355 354 354 353 351 349 345 339 332 330 330 323 322 316
230 301 320 332 339 341 341 342 343 342 341 343 343 343 345 346 347 348 346 346 346 346 347 345 342 340 332 324 322 328 323 319
243 291 316 330 334 339 340 338 337 334 332 332 333 335 337 338 339 339 340 342 342 343 342 343 342 341 336 326 320 321 327 324
237 273 301 311 324 331 337 336 336 338 339 337 338 338 338 339 338 339 339 341 341 339 341 341 340 338 339 336 329 326 324 327
Wind_Speed_850mb
59 61 62 54 45 39 38 34 26 36 41 56 67 70 75 73 73 70 66 72 72 73 73 70 68 66 64 62 62 59 62 61
56 57 57 60 53 45 40 40 37 26 34 35 51 65 74 79 79 78 73 67 70 68 74 76 75 76 73 67 66 67 65 63
57 62 62 60 59 52 45 44 43 41 33 33 38 56 66 73 78 84 83 75 70 69 68 72 76 77 81 76 72 74 76 72
44 51 61 61 63 59 53 45 43 44 42 39 32 41 57 38 49 60 78 87 83 79 75 72 74 72 77 81 79 78 83 83
33 32 41 53 60 60 56 53 47 42 41 41 43 33 27 37 33 42 57 62 79 84 89 88 79 76 76 77 75 79 84 94
38 35 35 37 42 54 59 58 58 52 46 41 38 33 30 29 30 41 28 23 49 68 79 81 82 87 91 89 81 80 86 91
39 43 48 50 50 47 56 60 61 60 56 51 46 43 39 37 31 25 27 16 35 7 37 47 55 54 89 76 84 87 98 96
24 32 42 47 53 57 61 66 63 61 62 58 53 50 48 43 41 40 34 31 44 43 28 13 13 13 18 36 45 66 65 73
14 20 28 35 41 49 56 63 65 59 59 59 54 49 49 48 45 43 43 39 30 37 42 42 26 43 49 60 56 45 40 22
16 16 20 25 30 39 49 55 58 55 54 54 58 55 51 45 43 42 44 42 43 31 34 29 44 40 36 41 60 56 73 92
10 13 14 19 25 29 40 44 51 45 47 51 52 55 53 48 44 43 40 38 34 41 42 38 39 34 26 31 36 45 47 61
9 9 9 16 25 28 31 39 54 45 45 46 52 56 51 48 49 49 47 43 41 36 34 32 26 26 28 26 24 32 31 36
3 3 5 12 19 22 29 40 49 51 42 43 50 52 49 50 51 51 50 47 42 39 39 38 36 35 33 34 34 27 24 25
7 6 8 13 19 22 30 39 44 44 41 46 48 47 47 48 51 52 53 53 52 49 45 45 43 37 34 36 37 40 41 33
13 7 8 19 28 29 31 36 43 43 45 45 45 46 46 47 50 55 56 55 56 57 55 47 42 43 44 35 38 39 43 41
6 7 16 24 26 28 35 41 41 41 44 44 44 42 42 45 51 55 56 58 61 60 57 50 45 42 45 53 45 42 40 42
5 11 15 18 19 27 34 35 38 43 45 47 48 48 50 52 56 58 57 59 64 65 61 54 48 42 41 43 50 47 41 39
8 9 12 12 17 24 29 31 35 39 44 46 47 48 49 52 53 54 58 64 67 66 63 61 56 49 42 41 44 49 48 42
10 8 8 8 14 21 26 29 36 42 45 42 43 46 48 52 52 55 58 60 61 62 62 61 57 55 50 47 45 44 48 50
Wind_Direction_850mb
18 12 11 13 14 11 7 2 331 314 294 257 252 254 256 254 252 251 251 245 243 244 246 248 248 247 246 246 247 247 248 248
26 16 8 6 9 10 11 3 3 336 313 284 266 255 256 258 256 257 254 251 246 246 247 250 248 247 248 249 251 253 253 252
25 24 19 15 11 10 9 8 4 3 349 333 281 269 261 264 265 262 260 255 252 249 249 251 251 250 248 249 251 255 258 255
12 21 27 24 22 18 14 15 10 7 0 348 322 264 259 254 258 267 269 261 258 254 253 253 256 254 255 254 254 255 260 263
10 17 26 28 28 27 25 22 19 18 11 9 355 341 292 270 264 260 255 256 255 254 254 254 256 259 258 260 261 261 260 261
32 33 33 26 20 22 24 27 27 27 31 33 29 4 342 314 287 272 249 224 236 244 246 249 252 258 259 257 262 264 263 263
46 54 49 41 33 27 21 17 23 25 28 32 41 39 18 359 332 325 304 303 345 239 234 244 242 255 251 254 255 264 266 266
27 34 38 38 37 37 32 25 16 16 20 24 28 36 37 34 25 14 352 332 302 18 2 295 269 307 274 252 267 256 260 261
350 15 30 32 32 30 26 26 19 14 9 14 19 24 33 37 33 29 21 11 13 5 8 6 329 287 294 282 283 286 289 295
333 328 3 21 24 26 22 19 17 10 10 12 14 18 20 28 36 31 26 19 12 2 2 1 3 351 350 314 299 271 266 274
321 342 340 15 12 10 16 19 12 6 6 9 11 13 16 17 21 29 26 23 17 13 14 356 344 348 338 344 346 316 290 271
311 306 338 356 5 6 9 9 3 2 360 2 3 4 8 12 15 17 20 18 12 10 12 13 9 9 8 8 349 333 320 296
247 321 325 344 3 6 5 358 357 359 357 355 355 357 4 9 11 14 13 12 12 12 4 355 352 348 349 351 350 342 337 335
139 77 40 8 1 357 354 349 353 352 348 345 350 360 5 8 8 9 10 8 8 9 4 356 354 348 339 331 326 331 342 348
133 99 5 350 349 345 346 345 346 347 349 353 358 3 4 3 1 1 1 1 0 0 359 356 347 341 337 334 325 321 315 316
169 325 335 337 339 343 344 346 348 351 349 352 357 357 356 356 355 356 355 354 354 353 351 349 345 339 332 330 330 323 322 316
230 301 320 332 339 341 341 342 343 342 341 343 343 343 345 346 347 348 346 346 346 346 347 345 342 340 332 324 322 328 323 319
243 291 316 330 334 339 340 338 337 334 332 332 333 335 337 338 339 339 340 342 342 343 342 343 342 341 336 326 320 321 327 324
237 273 301 311 324 331 337 336 336 338 339 337 338 338 338 339 338 339 339 341 341 339 341 341 340 338 339 336 329 326 324 327